Home   Weather   Yaren   Past weeks

Flag for Nauru Past Weather in Yaren, Nauru — Yesterday and Last 2 Weeks

Now
81 °F

Overcast.


Feels Like: 86 °F
Forecast: 80 / 87 °F
Wind: 15 mph from Southwest

Location: Majuro Atoll

Current Time: Oct 22, 2017 at 6:16:38 am

Latest Report: Oct 22, 2017 at 4:50 am


Visibility: 15 mi

Pressure: 29.78 "Hg

Humidity: 85%

Dew Point: 76 °F

Location of YarenLocation

Past Weather in Yaren — Graph

°F

Yaren Temperature Yesterday

Maximum temperature yesterday: 86 °F (at 9:53 am)
Minimum temperature yesterday: 77 °F (at 8:54 pm)
Average temperature yesterday: 81 °F

High & Low Weather Summary for the Past Weeks

 TemperatureHumidityPressure
High89 °F (Oct 8, 12:51 pm)94% (Oct 7, 4:49 am)29.86 "Hg (Oct 7, 4:49 am)
Low77 °F (Oct 21, 8:54 pm)66% (Oct 11, 2:51 pm)29.64 "Hg (Oct 15, 3:50 pm)
Average83 °F81%29.75 "Hg
* Reported Oct 7 4:35 am — Oct 22 4:50 am, Yaren. Weather by CustomWeather, © 2017

Note: Actual official high and low records may vary slightly from our data, if they occured in-between our weather recording intervals... More about our weather records

Advertising

Yaren Weather History for the Previous 24 Hours

Scroll right to see more
 ConditionsComfort  
Time TempWeatherWind HumidityBarometerVisibility
4:50 am
Sun, Oct 22
81 °FOvercast.15 mph85%29.78 "Hg15 mi
3:55 am80 °FOvercast.18 mph86%29.78 "Hg15 mi
2:56 am79 °FOvercast.17 mph90%29.78 "Hg15 mi
12:55 am78 °FLight rain. Overcast.6 mph91%29.83 "Hg14 mi
11:55 pm
Sat, Oct 21
78 °FLight rain. Mostly cloudy.9 mph91%29.84 "Hg14 mi
9:54 pm78 °FSprinkles. Overcast.18 mph94%29.86 "Hg8 mi
8:54 pm77 °FRain showers. Overcast.18 mph94%29.86 "Hg5 mi
8:32 pm77 °FLots of rain. Mostly cloudy.14 mph94%29.85 "Hg2 mi
7:50 pm78 °FOvercast.8 mph88%29.83 "Hg15 mi
6:50 pm79 °FRain. Cloudy.8 mph90%29.81 "Hg12 mi
5:56 pm79 °FRain. Cloudy.6 mph88%29.79 "Hg12 mi
4:52 pm80 °FRain. Cloudy.7 mph84%29.77 "Hg12 mi
3:54 pm80 °FCloudy.10 mph89%29.75 "Hg15 mi
2:54 pm79 °FRain. Mostly cloudy.10 mph89%29.75 "Hg14 mi
1:52 pm79 °FSprinkles. Cloudy.12 mph91%29.77 "Hg14 mi
12:52 pm83 °FCloudy.12 mph81%29.78 "Hg15 mi
11:51 am82 °FCloudy.13 mph83%29.80 "Hg15 mi
10:52 am79 °FSprinkles. Cloudy.9 mph90%29.83 "Hg12 mi
9:53 am86 °FCloudy.8 mph75%29.82 "Hg15 mi
8:53 am85 °FCloudy.9 mph78%29.82 "Hg15 mi
7:52 am84 °FCloudy.10 mph77%29.80 "Hg15 mi
Weather by CustomWeather, © 2017

See weather overview